This demonstration page uses our WeatherBlox Daily Observations layout. Learn more.

38.88101, -77.10428

Hourly Observations for February 11, 2018

Temp ( °F °C ) Dew Point ( °F °C ) Humidity (%) Winds ( mph kmh ) Pressure ( in mb ) Visibility ( mi km ) Precip ( " mm )
12:05 am 00:05 Cloudy with Light Rain 50 10 50 10 100 100 Calm 30.03 1017 3 4.82802 0.01 0.254
12:46 am 00:46 Cloudy with Light Rain 50 10 50 10 100 100 Calm 30.06 1018 2.5 4.02335 0.04 1.016
12:52 am 00:52 Cloudy with Rain 51 10.6 51 10.6 100 100 Calm 30.05 1018 2.5 4.02335 0.05 1.27
1:01 am 01:01 Cloudy with Rain 50 10 50 10 100 100 N 3 6 30.06 1018 3 4.82802 0.03 0.762
1:19 am 01:19 Cloudy with Light Rain 46 7.8 45 7.2 96 96 E 3 6 30.03 1017 1.5 2.41401 0.05 1.27
1:24 am 01:24 Cloudy with Light Rain 48 8.9 47 8.3 96 96 Calm 30.03 1017 1 1.60934 0.05 1.27
1:26 am 01:26 Cloudy with Light Rain 48 8.9 48 8.9 100 100 Calm 30.03 1017 1 1.60934 0.05 1.27
1:30 am 01:30 Cloudy with Light Rain 48 8.9 48 8.9 100 100 Calm 30.03 1017 0.75 1.207005 0.06 1.524
1:38 am 01:38 Cloudy with Light Rain 48 8.9 48 8.9 100 100 N 5 7 30.03 1017 0.5 0.80467 0.06 1.524
1:45 am 01:45 Cloudy with Light Rain 48 8.9 48 8.9 100 100 NNW 3 6 30.03 1017 0.75 1.207005 0.06 1.524
1:47 am 01:47 Cloudy with Light Rain 48 9 48 9 100 100 NNW 3 6 30.03 1017 1 1.60934 0.06 1.524
1:52 am 01:52 Cloudy with Light Rain 49 9.4 49 9.4 100 100 NW 3 6 30.04 1017 1.5 2.41401 0.06 1.524
1:54 am 01:54 Cloudy with Light Rain 49 9.4 49 9.4 100 100 WNW 3 6 30.03 1017 2.5 4.02335 0 0.0254
1:58 am 01:58 Cloudy with Light Rain 49 9.4 49 9.4 100 100 WNW 3 6 30.06 1018 3 4.82802 0 0.0254
2:18 am 02:18 Cloudy with Rain 49 9.4 49 9.4 100 100 NE 3 6 30.03 1017 1.5 2.41401 0.03 0.762
2:22 am 02:22 Cloudy with Light Rain 47 8.3 47 8.3 100 100 Calm 30.03 1017 1.5 2.41401 0.04 1.016
2:36 am 02:36 Cloudy with Light Rain 47 8.3 47 8.3 100 100 NNW 3 6 30.03 1017 2.5 4.02335 0.05 1.27
2:52 am 02:52 Mostly Cloudy with Light Rain 47 8.3 47 8.3 100 100 NE 5 7 30.03 1017 0.5 0.80467 0.06 1.524
2:57 am 02:57 Mostly Cloudy with Light Rain 47 8.3 47 8.3 100 100 NNE 3 6 30.03 1017 1 1.60934 0 0.0254
3:05 am 03:05 Mostly Cloudy with Light Rain 48 8.9 48 8.9 100 100 NNE 5 7 30.03 1017 1 1.60934 0 0.0254
3:26 am 03:26 Mostly Cloudy with Light Rain 49 9.4 48 8.9 97 97 N 5 7 30.03 1017 0.5 0.80467 0.02 0.508
3:32 am 03:32 Mostly Cloudy with Light Rain 49 9.4 49 9.4 100 100 NNE 3 6 30.03 1017 1 1.60934 0.02 0.508
3:52 am 03:52 Mostly Cloudy with Light Rain 49 9.4 49 9.4 100 100 NNE 3 6 30.01 1016 0.75 1.207005 0.04 1.016
4:13 am 04:13 Mostly Cloudy with Rain 49 9.4 49 9.4 100 100 NE 6 9 30 1016 1 1.60934 0.03 0.762
4:26 am 04:26 Mostly Cloudy with Rain 49 9.4 49 9.4 100 100 NNE 5 7 30 1016 0.75 1.207005 0.05 1.27
4:41 am 04:41 Mostly Cloudy with Light Rain 49 9.4 49 9.4 100 100 NNE 5 7 30 1016 1 1.60934 0.07 1.778
4:52 am 04:52 Mostly Cloudy with Heavy Rain 50 10 50 10 100 100 NNE 7 11 29.99 1016 1 1.60934 0.1 2.54
4:55 am 04:55 Cloudy with Heavy Rain 50 10 50 10 100 100 NNE 9 15 30 1016 1.25 2.011675 0.02 0.508
5:01 am 05:01 Cloudy with Rain 50 10 50 10 100 100 NNW 7 11 30 1016 2 3.21868 0.07 1.778
5:20 am 05:20 Cloudy with Rain 50 10 50 10 100 100 N 6 9 29.97 1015 2.5 4.02335 0.14 3.556
5:31 am 05:31 Cloudy with Heavy Rain 50 10 50 10 100 100 N 6 9 30 1016 3 4.82802 0.16 4.064
5:52 am 05:52 Cloudy with Heavy Rain 51 10.6 51 10.6 100 100 NE 6 9 29.98 1015 2.5 4.02335 0.32 8.128
5:56 am 05:56 Cloudy with Heavy Rain 50 10 50 10 100 100 N 7 11 29.97 1015 3 4.82802 0.02 0.508
6:15 am 06:15 Cloudy with Rain 50 10 49 9.4 96 96 NE 6 9 29.97 1015 2.5 4.02335 0.08 2.032
6:33 am 06:33 Cloudy with Light Rain 51 10.6 51 10.6 100 100 Calm 30 1016 5 8.0467 0.13 3.302
6:52 am 06:52 Cloudy with Light Rain 50 10 50 10 100 100 N 5 7 29.98 1015 5 8.0467 0.14 3.556
7:07 am 07:07 Cloudy with Light Rain 49 9.4 48 8.9 97 97 Calm 30 1016 5 8.0467 0 0.0254
7:17 am 07:17 Cloudy with Light Rain 49 9.4 49 9.4 100 100 Calm 29.97 1015 0.5 0.80467 0 0.0254
7:24 am 07:24 Cloudy with Light Rain 49 9.4 49 9.4 100 100 NNE 3 6 29.97 1015 2 3.21868 0 0.0254
7:52 am 07:52 Cloudy with Light Rain 50 10 50 10 100 100 NE 3 6 29.99 1016 2 3.21868 0.02 0.508
8:36 am 08:36 Cloudy with Light Rain 48 8.9 48 8.9 100 100 NE 3 6 30 1016 0.75 1.207005 0.05 1.27
8:38 am 08:38 Cloudy with Light Rain 49 9.4 48 8.9 97 97 Calm 30 1016 0.25 0.402335 0.05 1.27
8:52 am 08:52 Cloudy with Rain 50 10 50 10 100 100 NNE 3 6 29.98 1015 0.75 1.207005 0.08 2.032
9:16 am 09:16 Cloudy with Light Rain 51 10.6 51 10.6 100 100 N 5 7 29.97 1015 2 3.21868 0.04 1.016
9:25 am 09:25 Cloudy with Light Rain 52 11.1 52 11.1 100 100 E 5 7 29.97 1015 4 6.43736 0.04 1.016
9:49 am 09:49 Cloudy with Light Rain 52 11 52 11 100 100 Calm 29.97 1015 2 3.21868 0.05 1.27
9:52 am 09:52 Cloudy with Light Rain 52 11.1 52 11.1 100 100 Calm 29.96 1015 2 3.21868 0.05 1.27
10:28 am 10:28 Cloudy with Light Rain 51 10.6 51 10.6 100 100 E 7 11 29.94 1014 3 4.82802 0.01 0.254
10:33 am 10:33 Cloudy with Mist and Fog 50 10 50 10 100 100 ESE 7 11 29.94 1014 3 4.82802 0.01 0.254
10:46 am 10:46 Cloudy with Light Rain 54 12 54 12 100 100 SE 3 6 29.94 1014 3 4.82802 0.01 0.254
10:52 am 10:52 Cloudy with Light Rain 54 12.2 54 12.2 100 100 Calm 29.94 1014 3 4.82802 0.01 0.254
11:08 am 11:08 Cloudy with Light Rain 51 10.6 51 10.6 100 100 SSE 5 7 29.94 1014 0.25 0.402335 0.01 0.254
11:10 am 11:10 Cloudy with Light Rain 51 10.6 51 10.6 100 100 SSE 5 7 29.94 1014 0.25 0.402335 0.01 0.254
11:29 am 11:29 Cloudy with Light Rain 56 13.3 56 13.3 100 100 W 6 9 29.94 1014 0.5 0.80467 0.06 1.524
11:35 am 11:35 Cloudy with Light Rain 57 13.9 57 13.9 100 100 SW 3 6 29.94 1014 2.5 4.02335 0.06 1.524
11:49 am 11:49 Cloudy with Light Rain 54 12 54 12 100 100 E 5 7 29.91 1013 2 3.21868 0.06 1.524
11:52 am 11:52 Cloudy with Light Rain 51 10.6 50 10 96 96 E 3 6 29.91 1013 2 3.21868 0.06 1.524
11:56 am 11:56 Cloudy with Light Rain 52 11.1 51 10.6 97 97 Calm 29.91 1013 2 3.21868 0 0.0254
12:17 pm 12:17 Cloudy with Light Rain 58 14.4 58 14.4 100 100 S 7 11 29.91 1013 2 3.21868 0.01 0.254
12:52 pm 12:52 Cloudy with Light Rain 61 16.1 60 15.6 97 97 S 13 20 29.88 1012 2 3.21868 0.03 0.762
12:55 pm 12:55 Cloudy with Light Rain 59 15 59 15 100 100 S 12 19 29.88 1012 7 11.26538 0.01 0.254
1:24 pm 13:24 Cloudy with Nearby Thunderstorms 63 17.2 62 16.7 97 97 SSW 12 19 29.88 1012 7 11.26538 0.01 0.254
1:39 pm 13:39 Mostly Cloudy 62 16.7 61 16.1 96 96 S 12 19 29.85 1011 10 16.0934 0.01 0.254
1:52 pm 13:52 Mostly Cloudy 59 15 58 14.4 96 96 S 14 22 29.85 1011 10 16.0934 0.01 0.254
2:52 pm 14:52 Cloudy 64 17.8 62 16.7 93 93 SSW 9 15 29.87 1011 10 16.0934 0 0
3:52 pm 15:52 Cloudy 63 17.2 62 16.7 97 97 SSW 10 17 29.86 1011 10 16.0934 0 0
4:52 pm 16:52 Cloudy 67 19.4 62 16.7 84 84 SSW 12 19 29.86 1011 10 16.0934 0 0
5:52 pm 17:52 Cloudy with Light Rain 67 19.4 61 16.1 81 81 SSW 13 20 29.88 1012 10 16.0934 0.01 0.254
6:52 pm 18:52 Cloudy with Light Rain 66 18.9 64 17.8 93 93 SW 9 15 29.89 1012 10 16.0934 0.02 0.508
7:52 pm 19:52 Mostly Cloudy 60 15.6 59 15 96 96 S 12 19 29.91 1013 8 12.87472 0 0.0254
8:21 pm 20:21 Mostly Cloudy 58 14.4 58 14.4 100 100 S 10 17 29.91 1013 9 14.48406 0 0
8:41 pm 20:41 Mostly Cloudy 59 15 59 15 100 100 SSW 7 11 29.91 1013 9 14.48406 0 0
8:52 pm 20:52 Mostly Cloudy with Mist and Fog 59 15 59 15 100 100 S 8 13 29.92 1013 6 9.65604 0 0
9:09 pm 21:09 Mostly Cloudy 58 14.4 58 14.4 100 100 S 9 15 29.91 1013 9 14.48406 0 0
9:52 pm 21:52 Partly Cloudy 59 15 59 15 100 100 SSW 9 15 29.93 1014 10 16.0934 0 0
10:52 pm 22:52 Cloudy 64 17.8 61 16.1 90 90 SSW 12 19 29.95 1014 10 16.0934 0 0
11:52 pm 23:52 Cloudy 58 14.4 56 13.3 93 93 S 10 17 29.95 1014 10 16.0934 0 0

Powered by AerisWeather